Weather History for KMLB - May, 2013

Change the Weather History Date:

Wednesday, May 8, 2013

  Actual Average Record
Temperature  
Mean Temperature 72 °F 75 °F  
Max Temperature 84 °F 84 °F 93 °F (1975)
Min Temperature 60 °F 65 °F 47 °F (1992)
Degree Days  
Heating Degree Days 0 0  
Month to date heating degree days 0 0  
Since 1 July heating degree days 463 576  
Cooling Degree Days 7 10  
Month to date cooling degree days 56 73  
Year to date cooling degree days 590 448  
Growing Degree Days 21 (Base 50)    
Moisture  
Dew Point 58 °F    
Average Humidity 65    
Maximum Humidity 90    
Minimum Humidity 40    
Precipitation  
Precipitation 0.00 in 0.07 in 2.53 in (1979)
Month to date precipitation 1.58 0.53  
Year to date precipitation 10.52 10.74  
Sea Level Pressure  
Sea Level Pressure 30.09 in    
Wind  
Wind Speed 6 mph (SW)    
Max Wind Speed 15 mph    
Max Gust Speed 23 mph    
Visibility 10 miles    
Events      
T = Trace of Precipitation, MM = Missing Value Source: NWS Daily Summary

Daily Weather History Graph

Daily Weather History Graph

Search for Another Location

Airport or City:

Trip Planner

Search our weather history database for the weather conditions in past years. The results will help you decide how hot, cold, wet, or windy it might be!

Date:

Astronomy

May. 08, 2013 Rise Set
Actual Time 6:37 AM EDT 8:01 PM EDT
Civil Twilight 6:11 AM EDT 8:26 PM EDT
Nautical Twilight 5:41 AM EDT 8:56 PM EDT
Astronomical Twilight 5:10 AM EDT 9:28 PM EDT
Moon 5:37 AM EDT (5/8) 7:02 PM EDT (5/8)
Length of Visible Light 14h 14m
Length of Day
13h 24m
Waning Crescent, 2% of the Moon is Illuminated
May 8
Waning Crescent
May 9
New
May 18
First Quarter
May 25
Full
May 31
Last Quarter

Hourly Weather History & Observations

Time (EDT) Temp. Heat Index Dew Point Humidity Pressure Visibility Wind Dir Wind Speed Gust Speed Precip Events Conditions
12:53 AM 64.9 °F - 55.9 °F 73% 30.06 in 10.0 mi SW 4.6 mph - N/A   Clear
1:53 AM 63.0 °F - 55.9 °F 78% 30.05 in 10.0 mi West 3.5 mph - N/A   Clear
2:53 AM 62.1 °F - 55.9 °F 80% 30.03 in 10.0 mi SW 4.6 mph - N/A   Clear
3:53 AM 60.1 °F - 55.9 °F 86% 30.04 in 10.0 mi Calm Calm - N/A   Clear
4:53 AM 60.1 °F - 55.9 °F 86% 30.05 in 10.0 mi Calm Calm - N/A   Clear
5:53 AM 60.1 °F - 55.9 °F 86% 30.06 in 10.0 mi Calm Calm - N/A   Clear
6:53 AM 60.1 °F - 57.0 °F 90% 30.08 in 10.0 mi WSW 3.5 mph - N/A   Clear
7:53 AM 64.0 °F - 59.0 °F 84% 30.10 in 10.0 mi WSW 4.6 mph - N/A   Clear
8:53 AM 69.1 °F - 61.0 °F 75% 30.12 in 10.0 mi SW 6.9 mph - N/A   Clear
9:53 AM 73.0 °F - 59.0 °F 61% 30.12 in 10.0 mi West 9.2 mph - N/A   Partly Cloudy
10:53 AM 75.0 °F - 59.0 °F 57% 30.13 in 10.0 mi WNW 8.1 mph - N/A   Scattered Clouds
11:53 AM 75.9 °F - 57.9 °F 54% 30.13 in 10.0 mi Variable 4.6 mph - N/A   Scattered Clouds
12:53 PM 78.1 °F - 55.9 °F 46% 30.12 in 10.0 mi WSW 8.1 mph - N/A   Mostly Cloudy
1:53 PM 80.1 °F 80.1 °F 55.0 °F 42% 30.10 in 10.0 mi West 10.4 mph - N/A   Mostly Cloudy
2:53 PM 82.0 °F 81.6 °F 55.9 °F 41% 30.09 in 10.0 mi SSW 10.4 mph - N/A   Mostly Cloudy
3:53 PM 82.0 °F 81.6 °F 55.9 °F 41% 30.07 in 10.0 mi SW 9.2 mph 23.0 mph N/A   Scattered Clouds
4:53 PM 82.9 °F 82.0 °F 55.0 °F 38% 30.06 in 10.0 mi West 13.8 mph 17.3 mph N/A   Scattered Clouds
5:53 PM 80.1 °F 81.1 °F 61.0 °F 52% 30.06 in 10.0 mi Variable 3.5 mph - N/A   Scattered Clouds
6:53 PM 77.0 °F - 61.0 °F 58% 30.06 in 10.0 mi ESE 11.5 mph - N/A   Partly Cloudy
7:53 PM 75.0 °F - 62.1 °F 64% 30.07 in 10.0 mi SE 9.2 mph - N/A   Partly Cloudy
8:53 PM 73.9 °F - 61.0 °F 64% 30.09 in 10.0 mi SSE 5.8 mph - N/A   Partly Cloudy
9:53 PM 73.0 °F - 61.0 °F 66% 30.11 in 10.0 mi South 5.8 mph - N/A   Clear
10:53 PM 71.1 °F - 61.0 °F 70% 30.13 in 10.0 mi SW 4.6 mph - N/A   Clear
11:53 PM 68.0 °F - 57.0 °F 68% 30.14 in 10.0 mi West 4.6 mph - N/A   Clear